{"data":{"norad_id":55861,"epoch":"2026-09-21T22:33:28.879776Z","epoch_age_seconds":56909,"freshness":"FRESH","line1":"1 55861U 23034A   26264.93991759  .00043868  00000+0  52070-3 0  9994","line2":"2 55861  97.3775 124.9420 0004607   9.7712 350.3634 15.61063014197637","mean_motion":15.61063014,"eccentricity":0.0004607,"inclination_deg":97.3775,"raan_deg":124.942,"arg_perigee_deg":9.7712,"mean_anomaly_deg":350.3634,"bstar":0.0005207,"rev_number":19763,"period_min":92.24483490325,"perigee_km":381.46967741424,"apogee_km":387.70084970789,"semimajor_km":6762.7222635611,"source":"CELESTRAK","updated_at":"2026-09-22T09:00:25.592086Z"}}